�������l�o���
Date,Time,MP-1(��Sv/h),MP-2(��Sv/h),MP-3(��Sv/h),MP-4(��Sv/h),MP-5(��Sv/h),MP-6(��Sv/h),MP-7(��Sv/h),MP-8(��Sv/h),����,����(m/s),���J
2020/06/26,00:00,0.675,0.950,0.619,1.175,0.840,0.394,0.677,0.638,�k�k��,5.2,�L
2020/06/26,00:10,0.675,0.950,0.618,1.175,0.841,0.393,0.679,0.637,�k�k��,5.7,�L
2020/06/26,00:20,0.674,0.949,0.619,1.174,0.840,0.393,0.678,0.637,�k�k��,5.0,�L
2020/06/26,00:30,0.672,0.951,0.619,1.173,0.838,0.393,0.677,0.635,�k�k��,5.0,�L
2020/06/26,00:40,0.669,0.950,0.618,1.172,0.841,0.391,0.677,0.634,�k�k��,4.6,�L
2020/06/26,00:50,0.670,0.951,0.619,1.173,0.837,0.390,0.678,0.636,�k�k��,4.7,�L
2020/06/26,01:00,0.673,0.950,0.619,1.174,0.840,0.390,0.677,0.637,�k�k��,5.1,�L
2020/06/26,01:10,0.674,0.951,0.620,1.174,0.839,0.393,0.678,0.638,�k�k��,4.9,�L
2020/06/26,01:20,0.676,0.949,0.622,1.172,0.841,0.392,0.678,0.636,�k�k��,5.0,�L
2020/06/26,01:30,0.675,0.952,0.621,1.173,0.842,0.394,0.676,0.636,�k�k��,4.8,�L
2020/06/26,01:40,0.674,0.949,0.620,1.171,0.840,0.393,0.675,0.634,�k�k��,4.9,�L
2020/06/26,01:50,0.674,0.944,0.621,1.171,0.837,0.394,0.675,0.634,�k,5.1,�L
2020/06/26,02:00,0.671,0.944,0.617,1.169,0.834,0.393,0.675,0.633,�k�k��,5.5,�L
2020/06/26,02:10,0.670,0.943,0.620,1.166,0.836,0.394,0.676,0.633,�k�k��,5.0,�L
2020/06/26,02:20,0.672,0.944,0.619,1.165,0.833,0.392,0.675,0.633,�k�k��,5.3,�L
2020/06/26,02:30,0.669,0.945,0.617,1.162,0.833,0.391,0.676,0.634,�k�k��,4.7,�L
2020/06/26,02:40,0.670,0.942,0.616,1.162,0.832,0.392,0.675,0.634,�k��,3.3,�L
2020/06/26,02:50,0.670,0.940,0.617,1.161,0.832,0.392,0.674,0.631,�k�k��,4.3,�L
2020/06/26,03:00,0.668,0.940,0.617,1.157,0.832,0.392,0.674,0.632,�k�k��,5.5,�L
2020/06/26,03:10,0.668,0.939,0.618,1.160,0.830,0.391,0.674,0.632,�k�k��,5.0,�L
2020/06/26,03:20,0.667,0.939,0.617,1.157,0.829,0.391,0.673,0.631,�k�k��,4.6,�L
2020/06/26,03:30,0.668,0.937,0.616,1.152,0.827,0.392,0.673,0.631,�k�k��,4.2,�L
2020/06/26,03:40,0.666,0.935,0.615,1.150,0.826,0.390,0.672,0.630,�k�k��,4.3,�L
2020/06/26,03:50,0.666,0.932,0.615,1.150,0.825,0.392,0.672,0.630,�k�k��,4.3,�L
2020/06/26,04:00,0.666,0.933,0.617,1.147,0.823,0.390,0.671,0.629,�k�k��,4.2,�L
2020/06/26,04:10,0.666,0.934,0.615,1.146,0.825,0.391,0.671,0.628,�k�k��,3.7,�L
2020/06/26,04:20,0.668,0.935,0.616,1.145,0.825,0.391,0.670,0.628,�k,3.7,�L
2020/06/26,04:30,0.665,0.931,0.616,1.140,0.821,0.390,0.669,0.627,�k��,2.6,�L
2020/06/26,04:40,0.665,0.930,0.614,1.137,0.818,0.389,0.667,0.626,�k��,7.1,�L
2020/06/26,04:50,0.666,0.931,0.614,1.139,0.820,0.389,0.669,0.627,�k,5.1,�L
2020/06/26,05:00,0.667,0.933,0.614,1.142,0.822,0.390,0.668,0.627,�k,4.2,�L
2020/06/26,05:10,0.665,0.933,0.615,1.145,0.819,0.391,0.669,0.627,�k,3.3,�L
2020/06/26,05:20,0.666,0.936,0.612,1.144,0.821,0.389,0.669,0.628,�k�k��,3.5,�L
2020/06/26,05:30,0.666,0.933,0.613,1.143,0.820,0.388,0.669,0.627,�k�k��,3.1,�L
2020/06/26,05:40,0.666,0.933,0.613,1.144,0.822,0.389,0.667,0.629,�k�k��,3.1,�L
2020/06/26,05:50,0.666,0.933,0.612,1.144,0.823,0.388,0.666,0.628,�k�k��,3.0,��
2020/06/26,06:00,0.667,0.935,0.611,1.143,0.821,0.388,0.668,0.626,�k�k��,2.0,��
2020/06/26,06:10,0.665,0.934,0.611,1.144,0.824,0.388,0.666,0.628,�k�k��,2.6,�L
2020/06/26,06:20,0.662,0.935,0.611,1.143,0.822,0.389,0.668,0.628,�k,1.7,��
2020/06/26,06:30,0.664,0.936,0.612,1.144,0.824,0.387,0.669,0.629,�k,1.2,��
2020/06/26,06:40,0.664,0.935,0.609,1.144,0.822,0.388,0.669,0.627,�k�k��,1.2,�L
2020/06/26,06:50,0.663,0.936,0.609,1.145,0.822,0.387,0.668,0.629,�k�k��,1.9,��
2020/06/26,07:00,0.663,0.934,0.611,1.145,0.823,0.386,0.669,0.628,�k,2.0,��
2020/06/26,07:10,0.664,0.935,0.609,1.147,0.822,0.388,0.669,0.628,�k�k��,1.9,�L
2020/06/26,07:20,0.664,0.935,0.609,1.147,0.824,0.384,0.669,0.627,�k�k��,1.7,�L
2020/06/26,07:30,0.661,0.934,0.610,1.146,0.825,0.386,0.669,0.627,�k�k��,2.0,��
2020/06/26,07:40,0.662,0.934,0.610,1.147,0.823,0.386,0.667,0.627,�k�k��,1.9,��
2020/06/26,07:50,0.663,0.937,0.609,1.147,0.824,0.384,0.670,0.629,�k�k��,2.3,��
2020/06/26,08:00,0.662,0.933,0.609,1.146,0.824,0.384,0.668,0.627,�k�k��,2.2,��
2020/06/26,08:10,0.662,0.936,0.610,1.147,0.823,0.383,0.671,0.628,�k�k��,1.9,��
2020/06/26,08:20,0.663,0.935,0.609,1.149,0.825,0.383,0.669,0.628,�k�k��,2.0,��
2020/06/26,08:30,0.662,0.933,0.609,1.149,0.823,0.382,0.671,0.629,�k�k��,2.0,��
2020/06/26,08:40,0.664,0.933,0.608,1.149,0.824,0.384,0.671,0.629,�k�k��,2.0,��
2020/06/26,08:50,0.662,0.934,0.609,1.149,0.824,0.384,0.669,0.629,�k��,1.5,��
2020/06/26,09:00,0.664,0.931,0.608,1.149,0.823,0.384,0.671,0.629,�k��,2.2,��
2020/06/26,09:10,0.661,0.930,0.608,1.149,0.823,0.385,0.671,0.628,�k�k��,2.0,�L
2020/06/26,09:20,0.663,0.931,0.607,1.150,0.823,0.387,0.671,0.628,�k�k��,2.0,��
2020/06/26,09:30,0.664,0.932,0.610,1.150,0.822,0.386,0.671,0.630,�k��,2.5,��
2020/06/26,09:40,0.667,0.933,0.611,1.150,0.825,0.385,0.672,0.628,�k��,2.0,��
2020/06/26,09:50,0.665,0.932,0.610,1.149,0.824,0.387,0.670,0.627,�k��,1.7,��
2020/06/26,10:00,0.665,0.931,0.610,1.147,0.824,0.386,0.670,0.630,�k��,1.7,��
2020/06/26,10:10,0.665,0.931,0.610,1.151,0.826,0.388,0.670,0.628,�k�k��,1.5,��
2020/06/26,10:20,0.666,0.930,0.611,1.149,0.825,0.387,0.671,0.630,���k��,1.7,��
2020/06/26,10:30,0.665,0.935,0.610,1.150,0.825,0.385,0.672,0.629,�k,1.5,��
2020/06/26,10:40,0.665,0.934,0.613,1.149,0.824,0.385,0.673,0.629,�k�k��,1.5,��
2020/06/26,10:50,0.665,0.935,0.612,1.152,0.826,0.387,0.672,0.631,�k�k��,1.7,��
2020/06/26,11:00,0.665,0.934,0.610,1.154,0.827,0.387,0.673,0.629,�k�k��,1.9,��
2020/06/26,11:10,0.664,0.934,0.612,1.152,0.826,0.388,0.672,0.629,�k,2.6,��
2020/06/26,11:20,0.666,0.934,0.612,1.149,0.826,0.387,0.672,0.630,�k�k��,1.9,��
2020/06/26,11:30,0.664,0.937,0.614,1.151,0.827,0.387,0.672,0.630,�k�k��,1.5,��
2020/06/26,11:40,0.664,0.938,0.611,1.152,0.829,0.387,0.673,0.630,�k�k��,1.9,��
2020/06/26,11:50,0.667,0.938,0.614,1.152,0.828,0.389,0.673,0.631,�k�k��,2.0,�L
2020/06/26,12:00,0.667,0.936,0.614,1.152,0.827,0.389,0.672,0.629,�k�k��,1.7,��
2020/06/26,12:10,0.664,0.940,0.613,1.154,0.829,0.387,0.675,0.631,�k,0.6,��
2020/06/26,12:20,0.666,0.941,0.615,1.155,0.832,0.389,0.672,0.631,�k,1.5,��
2020/06/26,12:30,0.666,0.941,0.613,1.154,0.828,0.387,0.675,0.630,�k�k��,0.9,��
2020/06/26,12:40,0.667,0.940,0.616,1.152,0.828,0.389,0.672,0.630,�k,2.0,��
2020/06/26,12:50,0.666,0.940,0.614,1.154,0.830,0.389,0.673,0.631,�k,0.9,��
2020/06/26,13:00,0.667,0.941,0.615,1.153,0.826,0.388,0.673,0.630,�k�k��,1.7,�L
2020/06/26,13:10,0.666,0.942,0.614,1.153,0.829,0.387,0.673,0.632,�k�k��,1.7,��
2020/06/26,13:20,0.667,0.941,0.615,1.155,0.829,0.389,0.673,0.631,�k��,2.2,��
2020/06/26,13:30,0.667,0.940,0.615,1.155,0.831,0.388,0.674,0.629,�k��,0.9,��
2020/06/26,13:40,0.666,0.939,0.614,1.152,0.830,0.388,0.674,0.631,�k��,1.5,��
2020/06/26,13:50,0.667,0.937,0.613,1.152,0.829,0.389,0.673,0.630,�k��,1.2,�L
2020/06/26,14:00,0.664,0.938,0.613,1.156,0.829,0.389,0.673,0.630,�k�k��,1.2,�L
2020/06/26,14:10,0.667,0.942,0.614,1.156,0.830,0.390,0.676,0.631,�k�k��,1.5,�L
2020/06/26,14:20,0.667,0.940,0.615,1.156,0.829,0.390,0.675,0.632,�k�k��,2.0,�L
2020/06/26,14:30,0.668,0.938,0.617,1.153,0.832,0.389,0.675,0.630,�k�k��,2.0,�L
2020/06/26,14:40,0.670,0.942,0.614,1.155,0.832,0.390,0.674,0.632,�k,2.6,�L
2020/06/26,14:50,0.670,0.942,0.617,1.153,0.831,0.393,0.673,0.630,�k�k��,2.5,�L
2020/06/26,15:00,0.669,0.942,0.616,1.155,0.830,0.393,0.674,0.630,�k,3.5,�L
2020/06/26,15:10,0.670,0.941,0.618,1.159,0.832,0.393,0.675,0.632,�k�k��,2.8,�L
2020/06/26,15:20,0.670,0.944,0.616,1.155,0.830,0.392,0.674,0.632,�k�k��,3.0,�L
2020/06/26,15:30,0.667,0.944,0.619,1.158,0.831,0.391,0.674,0.633,�k,4.3,�L
2020/06/26,15:40,0.670,0.944,0.619,1.154,0.830,0.391,0.674,0.631,�k,4.1,��
2020/06/26,15:50,0.668,0.943,0.617,1.155,0.831,0.392,0.672,0.631,�k�k��,3.7,��
2020/06/26,16:00,0.668,0.941,0.619,1.153,0.831,0.391,0.674,0.632,�k,4.0,��
2020/06/26,16:10,0.667,0.944,0.617,1.154,0.828,0.390,0.675,0.631,�k,4.5,��
2020/06/26,16:20,0.667,0.940,0.617,1.156,0.830,0.391,0.675,0.632,�k�k��,3.4,��
2020/06/26,16:30,0.667,0.943,0.615,1.155,0.828,0.391,0.675,0.632,�k�k��,3.5,��
2020/06/26,16:40,0.667,0.942,0.615,1.154,0.829,0.388,0.675,0.630,�k�k��,3.4,��
2020/06/26,16:50,0.664,0.941,0.613,1.156,0.829,0.388,0.674,0.632,�k�k��,3.4,��
2020/06/26,17:00,0.663,0.942,0.615,1.154,0.828,0.388,0.674,0.631,�k�k��,3.7,�L
2020/06/26,17:10,0.667,0.943,0.613,1.154,0.829,0.389,0.673,0.631,�k�k��,3.5,�L
2020/06/26,17:20,0.665,0.943,0.614,1.156,0.828,0.389,0.674,0.631,�k�k��,3.4,�L
2020/06/26,17:30,0.668,0.944,0.615,1.154,0.828,0.389,0.673,0.630,�k�k��,3.6,��
2020/06/26,17:40,0.664,0.945,0.615,1.155,0.828,0.388,0.674,0.630,�k�k��,4.0,��
2020/06/26,17:50,0.668,0.945,0.615,1.156,0.828,0.389,0.673,0.629,�k,3.7,��
2020/06/26,18:00,0.666,0.944,0.616,1.155,0.831,0.390,0.674,0.631,�k,3.8,��
2020/06/26,18:10,0.668,0.942,0.616,1.157,0.829,0.391,0.673,0.630,�k,4.0,��
2020/06/26,18:20,0.668,0.943,0.616,1.154,0.832,0.389,0.672,0.631,�k,3.7,��
2020/06/26,18:30,0.667,0.945,0.615,1.157,0.831,0.390,0.672,0.631,�k,4.3,��
2020/06/26,18:40,0.668,0.941,0.615,1.155,0.830,0.389,0.673,0.632,�k�k��,3.7,��
2020/06/26,18:50,0.667,0.941,0.616,1.154,0.832,0.389,0.673,0.632,�k�k��,4.2,��
2020/06/26,19:00,0.668,0.944,0.616,1.156,0.831,0.390,0.673,0.630,�k,3.0,��
2020/06/26,19:10,0.667,0.944,0.616,1.155,0.830,0.390,0.673,0.632,�k�k��,3.2,�L
2020/06/26,19:20,0.668,0.943,0.615,1.155,0.829,0.387,0.675,0.631,�k�k��,2.6,�L
2020/06/26,19:30,0.667,0.940,0.618,1.155,0.830,0.391,0.674,0.631,�k,2.3,�L
2020/06/26,19:40,0.668,0.942,0.615,1.157,0.831,0.391,0.674,0.630,�k�k��,1.5,�L
2020/06/26,19:50,0.664,0.941,0.615,1.157,0.831,0.390,0.671,0.629,�k�k��,1.1,��
2020/06/26,20:00,0.667,0.941,0.615,1.156,0.832,0.390,0.672,0.630,�k�k��,1.2,��
2020/06/26,20:10,0.666,0.941,0.615,1.156,0.831,0.391,0.673,0.631,�k,1.5,��
2020/06/26,20:20,0.666,0.941,0.616,1.153,0.830,0.389,0.672,0.629,�k�k��,1.7,��
2020/06/26,20:30,0.665,0.942,0.613,1.156,0.831,0.390,0.673,0.630,�k�k��,1.7,��
2020/06/26,20:40,0.665,0.942,0.615,1.157,0.833,0.389,0.671,0.631,�k,2.5,��
2020/06/26,20:50,0.666,0.939,0.615,1.153,0.830,0.390,0.673,0.632,�k�k��,2.3,��
2020/06/26,21:00,0.666,0.938,0.614,1.154,0.829,0.391,0.673,0.631,�k�k��,2.5,��
2020/06/26,21:10,0.665,0.940,0.615,1.155,0.830,0.390,0.672,0.631,�k,2.5,��
2020/06/26,21:20,0.665,0.944,0.614,1.155,0.831,0.390,0.672,0.631,�k,2.0,��
2020/06/26,21:30,0.664,0.939,0.614,1.154,0.830,0.388,0.671,0.630,�k,2.0,��
2020/06/26,21:40,0.667,0.941,0.615,1.154,0.831,0.390,0.673,0.631,�k,2.5,��
2020/06/26,21:50,0.668,0.940,0.614,1.155,0.829,0.390,0.672,0.632,�k�k��,2.3,��
2020/06/26,22:00,0.666,0.942,0.614,1.155,0.830,0.391,0.671,0.630,�k,1.7,��
2020/06/26,22:10,0.667,0.940,0.616,1.155,0.829,0.388,0.672,0.632,�k�k��,1.5,��
2020/06/26,22:20,0.666,0.938,0.615,1.156,0.831,0.389,0.672,0.629,�k,1.2,��
2020/06/26,22:30,0.666,0.937,0.615,1.152,0.829,0.387,0.673,0.632,�k,0.6,��
2020/06/26,22:40,0.665,0.942,0.614,1.154,0.831,0.388,0.673,0.632,�k�k��,1.2,��
2020/06/26,22:50,0.666,0.943,0.614,1.154,0.830,0.390,0.673,0.633,�k,1.5,��
2020/06/26,23:00,0.667,0.938,0.615,1.154,0.831,0.388,0.671,0.630,�k,1.7,��
2020/06/26,23:10,0.667,0.940,0.615,1.153,0.829,0.389,0.673,0.631,�k�k��,0.9,��
2020/06/26,23:20,0.667,0.941,0.614,1.154,0.832,0.388,0.674,0.631,�k��,0.6,��
2020/06/26,23:30,0.666,0.941,0.613,1.154,0.829,0.389,0.673,0.631,�k�k��,0.8,��
2020/06/26,23:40,0.665,0.940,0.614,1.153,0.832,0.388,0.673,0.632,�k�k��,0.6,��
2020/06/26,23:50,0.665,0.940,0.613,1.157,0.831,0.389,0.673,0.632,-,CALM,��
